[[{"header":{"parameterUnit":"m.s-1","parameterCategory":1,"la1":30.2992,"la2":30.254,"lo1":-89.0895,"lo2":-89.0443,"dy":0.0025,"dx":0.0025,"nx":19,"ny":19,"refTime":"2026-04-29T03:00:00:Z","depth":0,"parameterNumber":2,"parameterNumberName":"U-component_of_WINDS"},"data":[0,0,0,2.012,2.0123,2.0248,2.0248,2.0405,2.0406,0,0,0,0,0,0,0,0,0,0,0,2.0083,2.0084,2.012,2.0123,2.0248,2.0248,2.0404,2.0406,0,0,0,0,0,0,0,0,0,0,0,2.0082,2.0083,2.0085,2.0124,2.0248,2.0248,2.0404,2.0311,0,0,0,0,0,0,0,0,0,0,2.019,2.0155,2.0083,2.0085,2.0125,2.0247,2.0248,2.0307,2.0317,2.0347,0,2.0375,0,2.0393,2.0416,2.0417,0,0,0,2.0124,2.0146,2.0181,2.0085,2.0126,2.0247,2.0192,2.0312,2.0324,2.0361,2.0377,2.0383,2.0395,2.0417,2.0418,2.0591,2.0591,0,0,2.0117,2.0105,2.0173,2.0188,2.0169,2.0188,2.0196,2.0319,2.0336,2.0377,2.0386,2.0398,2.0418,2.042,2.059,2.0591,0,0,0,2.0097,2.01,2.0131,2.0182,2.0204,2.0191,2.02,2.033,2.0342,2.0388,2.04,2.0419,2.0421,2.0589,2.059,2.0615,0,0,0,2.0093,2.0088,2.0128,2.0122,2.0202,2.0269,2.0209,2.0333,2.0347,2.0399,2.0419,2.0423,2.0588,2.059,2.0612,2.0629,0,0,0,2.0075,2.0086,2.0104,2.0121,2.0174,2.0267,2.0286,2.0336,2.0355,2.0417,2.0423,2.0588,2.0589,2.061,2.0625,2.0669,0,0,0,2.0052,2.0125,2.0104,2.019,2.0173,2.0282,2.0285,2.0368,2.0424,2.042,2.0588,2.059,2.061,2.0623,2.0666,2.0702,2.0717,0,0,2.0137,2.0135,2.0187,2.0171,2.0281,2.0264,2.0378,2.0442,2.046,2.0546,2.055,2.0613,2.0625,2.0668,2.0803,2.0814,0,0,0,2.0209,2.0246,2.0278,2.0331,2.0381,2.0425,2.0472,2.0496,2.0569,2.0501,2.0642,2.0649,2.0675,2.0693,2.0702,2.0725,2.0598,2.0598,2.0598,2.0312,2.033,2.0415,2.0447,2.0499,2.0546,2.0588,2.0628,2.0632,2.0665,2.069,2.077,2.079,2.0797,2.082,2.0712,2.0712,2.0712,2.0712,2.0437,2.0491,2.0493,2.0577,2.0594,2.0665,2.0712,2.0712,2.0779,2.0753,2.0776,2.0744,2.0809,2.083,2.0714,2.0714,2.0713,2.0713,2.0713,2.0506,2.0534,2.0561,2.0637,2.0694,2.0724,2.0787,2.0802,2.0816,2.084,2.0866,2.0866,2.0866,2.0852,2.0852,2.0852,2.0852,2.0853,2.0853,2.0565,2.0594,2.0646,2.0704,2.0738,2.0786,2.0832,2.0867,2.0908,2.0913,2.0913,2.0912,2.0813,2.0786,2.0857,2.0856,2.0856,2.0855,2.0855,2.0684,2.0659,2.0739,2.0773,2.0841,2.0894,2.0912,2.0979,2.101,2.104,2.1034,2.0958,2.0957,2.095,2.0928,2.1031,2.1031,2.1031,2.1031,2.074,2.074,2.0824,2.0878,2.0932,2.0955,2.1043,2.1079,2.1113,2.1132,2.1119,2.1092,2.1084,2.1087,2.1077,2.1056,2.119,2.1191,2.1191,2.0813,2.0819,2.0891,2.0924,2.0977,2.1022,2.1104,2.1164,2.1198,2.1197,2.1147,2.114,2.1096,2.1081,2.108,2.1063,2.1026,0,0]},{"header":{"parameterUnit":"m.s-1","parameterCategory":1,"la1":30.2992,"la2":30.254,"lo1":-89.0895,"lo2":-89.0443,"dy":0.0025,"dx":0.0025,"nx":19,"ny":19,"refTime":"2026-04-29T03:00:00:Z","depth":0,"parameterNumber":3,"parameterNumberName":"V-component_of_WINDS"},"data":[0,0,0,3.5931,3.5934,3.6042,3.6043,3.618,3.6181,0,0,0,0,0,0,0,0,0,0,0,3.5901,3.5902,3.5931,3.5934,3.6042,3.6043,3.6179,3.6181,0,0,0,0,0,0,0,0,0,0,0,3.5901,3.5902,3.5903,3.5934,3.6042,3.6043,3.6179,3.6097,0,0,0,0,0,0,0,0,0,0,3.5992,3.5967,3.5902,3.5904,3.5935,3.6042,3.6043,3.6093,3.6102,3.6131,0,3.616,0,3.6173,3.619,3.6191,0,0,0,3.5931,3.596,3.5987,3.5904,3.5936,3.6042,3.5993,3.6098,3.6108,3.6143,3.6162,3.6167,3.6175,3.6191,3.6192,3.6373,3.6374,0,0,3.5925,3.5921,3.598,3.5994,3.5981,3.5989,3.5996,3.6104,3.6123,3.6162,3.617,3.6177,3.6192,3.6193,3.6372,3.6374,0,0,0,3.591,3.5917,3.5942,3.5988,3.6008,3.5992,3.6,3.6118,3.6127,3.6171,3.6179,3.6193,3.6195,3.6371,3.6373,3.6419,0,0,0,3.5906,3.5908,3.594,3.5938,3.6007,3.6066,3.6012,3.612,3.6132,3.6178,3.6193,3.6196,3.637,3.6372,3.6415,3.644,0,0,0,3.5893,3.5907,3.5924,3.5938,3.5985,3.6064,3.6079,3.6122,3.6137,3.6191,3.6196,3.637,3.6372,3.6412,3.6435,3.6488,0,0,0,3.5878,3.5961,3.5924,3.6019,3.5984,3.6092,3.6078,3.6158,3.621,3.6194,3.6371,3.6373,3.6411,3.6432,3.6484,3.6532,3.6551,0,0,3.598,3.5973,3.6029,3.6,3.6114,3.6076,3.6196,3.6245,3.6252,3.6332,3.6336,3.6416,3.6435,3.6487,3.6661,3.6676,0,0,0,3.606,3.6101,3.6132,3.6183,3.6225,3.6262,3.6294,3.6312,3.638,3.6294,3.6449,3.646,3.6491,3.6514,3.6527,3.6553,3.6383,3.6383,3.6383,3.6198,3.6205,3.6299,3.6319,3.6368,3.6401,3.6441,3.6471,3.6461,3.6498,3.6522,3.6627,3.6653,3.6663,3.669,3.6547,3.6547,3.6547,3.6547,3.6349,3.6407,3.6395,3.6482,3.6488,3.6559,3.6593,3.6584,3.665,3.6609,3.6636,3.6591,3.668,3.6704,3.6551,3.655,3.655,3.6549,3.6549,3.644,3.647,3.6493,3.6567,3.6623,3.6639,3.6704,3.6706,3.6708,3.6735,3.676,3.676,3.6759,3.6747,3.6747,3.6748,3.6748,3.6748,3.6749,3.6526,3.6551,3.6607,3.6659,3.6693,3.6736,3.677,3.6801,3.6836,3.6832,3.6833,3.6819,3.6688,3.6655,3.6754,3.6753,3.6753,3.6752,3.6752,3.6677,3.6644,3.6731,3.6764,3.6825,3.6881,3.6883,3.6947,3.6973,3.7005,3.6986,3.6888,3.688,3.6869,3.6842,3.6984,3.6984,3.6984,3.6984,3.6755,3.6752,3.6841,3.6895,3.6947,3.6958,3.7053,3.708,3.7101,3.7117,3.7097,3.706,3.705,3.7048,3.7033,3.7008,3.7189,3.719,3.719,3.6848,3.685,3.6932,3.6956,3.7004,3.7045,3.7134,3.7193,3.721,3.7198,3.713,3.7121,3.7063,3.7043,3.703,3.7008,3.6961,0,0]}]]